| time (UTC) | temp F | wind direction | speed MPH | gust MPH | rain 1hr in | rain 24hr in | rain mn in | humidity % | barometer mb |
| 20260507013034 | 46 | 331 | 1.0 | 6.0 | 0.00 | 0.41 | 0.00 | 91 | 1012.8 |
| 20260507011534 | 46 | 334 | 1.0 | 4.0 | 0.00 | 0.43 | 0.00 | 91 | 1012.8 |
| 20260507010034 | 46 | 341 | 1.0 | 4.0 | 0.00 | 0.45 | 0.00 | 91 | 1012.5 |
| 20260507003034 | 46 | 327 | 1.0 | 4.0 | 0.00 | 0.47 | 0.00 | 91 | 1012.6 |
| 20260507001536 | 46 | 346 | 1.0 | 4.0 | 0.00 | 0.48 | 0.00 | 91 | 1012.6 |
| 20260506234533 | 46 | 337 | 1.0 | 6.0 | 0.00 | 0.52 | 0.00 | 90 | 1012.6 |
| 20260506233033 | 47 | 341 | 1.0 | 4.0 | 0.00 | 0.53 | 0.00 | 89 | 1012.3 |
| 20260506231534 | 47 | 314 | 1.0 | 6.0 | 0.00 | 0.54 | 0.00 | 89 | 1012.2 |
| 20260506230033 | 47 | 0 | 0.0 | 2.0 | 0.00 | 0.57 | 0.00 | 88 | 1012.4 |
| 20260506223033 | 47 | 336 | 1.0 | 2.0 | 0.00 | 0.58 | 0.00 | 86 | 1012.2 |
| 20260506221533 | 48 | 334 | 1.0 | 4.0 | 0.00 | 0.58 | 0.00 | 85 | 1012.1 |
| 20260506220033 | 48 | 331 | 1.0 | 4.0 | 0.00 | 0.58 | 0.00 | 85 | 1012.0 |
| 20260506214533 | 48 | 322 | 0.0 | 2.0 | 0.00 | 0.58 | 0.58 | 85 | 1012.1 |
| 20260506213033 | 48 | 9 | 1.0 | 4.0 | 0.00 | 0.58 | 0.58 | 85 | 1012.1 |
| 20260506204533 | 48 | 17 | 2.0 | 4.0 | 0.00 | 0.58 | 0.58 | 85 | 1011.7 |
| 20260506201533 | 48 | 354 | 1.0 | 4.0 | 0.00 | 0.59 | 0.58 | 86 | 1011.5 |
| 20260506200032 | 48 | 355 | 1.0 | 4.0 | 0.00 | 0.59 | 0.58 | 85 | 1011.6 |
| 20260506191534 | 48 | 352 | 2.0 | 4.0 | 0.00 | 0.60 | 0.58 | 85 | 1011.2 |
| 20260506190032 | 48 | 8 | 2.0 | 4.0 | 0.00 | 0.60 | 0.58 | 86 | 1011.0 |
| 20260506183033 | 49 | 30 | 1.0 | 4.0 | 0.00 | 0.60 | 0.58 | 85 | 1010.7 |
| 20260506180031 | 49 | 23 | 2.0 | 6.0 | 0.00 | 0.60 | 0.58 | 85 | 1010.4 |
| 20260506174532 | 48 | 13 | 2.0 | 7.0 | 0.00 | 0.60 | 0.58 | 85 | 1010.4 |
| 20260506173032 | 49 | 13 | 4.0 | 11.0 | 0.00 | 0.60 | 0.58 | 85 | 1010.2 |
| 20260506171531 | 49 | 36 | 3.0 | 9.0 | 0.00 | 0.60 | 0.58 | 85 | 1010.2 |
| 20260506170031 | 49 | 35 | 3.0 | 11.0 | 0.00 | 0.60 | 0.58 | 85 | 1010.0 |
| 20260506164531 | 49 | 22 | 3.0 | 9.0 | 0.00 | 0.60 | 0.58 | 86 | 1010.1 |
| 20260506163032 | 49 | 31 | 2.0 | 8.0 | 0.00 | 0.60 | 0.58 | 87 | 1010.0 |
| 20260506160031 | 48 | 48 | 3.0 | 14.0 | 0.00 | 0.60 | 0.58 | 89 | 1009.9 |
| 20260506154535 | 49 | 7 | 3.0 | 9.0 | 0.00 | 0.60 | 0.58 | 90 | 1009.9 |
| 20260506153031 | 48 | 31 | 4.0 | 11.0 | 0.00 | 0.60 | 0.58 | 91 | 1009.9 |
| 20260506151531 | 49 | 16 | 3.0 | 8.0 | 0.00 | 0.60 | 0.58 | 92 | 1009.9 |
| 20260506150031 | 48 | 16 | 3.0 | 8.0 | 0.00 | 0.60 | 0.58 | 92 | 1009.7 |
| 20260506144531 | 48 | 17 | 2.0 | 7.0 | 0.00 | 0.60 | 0.58 | 94 | 1009.4 |
| 20260506143031 | 48 | 29 | 4.0 | 9.0 | 0.00 | 0.60 | 0.58 | 94 | 1009.3 |
| 20260506141531 | 48 | 13 | 4.0 | 9.0 | 0.00 | 0.60 | 0.58 | 95 | 1009.4 |
| 20260506124530 | 48 | 25 | 2.0 | 7.0 | 0.00 | 0.60 | 0.58 | 96 | 1009.0 |
| 20260506123030 | 48 | 7 | 3.0 | 11.0 | 0.00 | 0.60 | 0.58 | 96 | 1008.9 |
| 20260506121531 | 48 | 36 | 3.0 | 8.0 | 0.01 | 0.60 | 0.58 | 96 | 1008.9 |
| 20260506120029 | 48 | 18 | 3.0 | 8.0 | 0.01 | 0.60 | 0.58 | 96 | 1008.7 |
| 20260506113029 | 47 | 16 | 3.0 | 9.0 | 0.01 | 0.61 | 0.58 | 96 | 1008.9 |
| 20260506111530 | 47 | 37 | 3.0 | 8.0 | 0.01 | 0.60 | 0.57 | 96 | 1008.5 |
| 20260506110030 | 47 | 21 | 3.0 | 11.0 | 0.01 | 0.60 | 0.57 | 96 | 1008.8 |
| 20260506104529 | 46 | 23 | 4.0 | 13.0 | 0.01 | 0.60 | 0.57 | 96 | 1008.6 |
| 20260506103029 | 46 | 36 | 3.0 | 11.0 | 0.01 | 0.60 | 0.57 | 97 | 1008.5 |
| 20260506101530 | 46 | 16 | 3.0 | 9.0 | 0.01 | 0.60 | 0.56 | 97 | 1008.4 |
| 20260506100029 | 46 | 358 | 4.0 | 11.0 | 0.01 | 0.60 | 0.56 | 97 | 1008.4 |
| 20260506094530 | 46 | 21 | 4.0 | 9.0 | 0.01 | 0.60 | 0.56 | 97 | 1008.4 |
| 20260506091529 | 45 | 10 | 4.0 | 11.0 | 0.01 | 0.59 | 0.54 | 98 | 1008.2 |
| 20260506090029 | 45 | 20 | 4.0 | 9.0 | 0.01 | 0.59 | 0.54 | 98 | 1008.1 |
| 20260506084529 | 45 | 346 | 4.0 | 9.0 | 0.02 | 0.59 | 0.54 | 98 | 1008.1 |
| 20260506083029 | 45 | 10 | 4.0 | 11.0 | 0.01 | 0.58 | 0.53 | 98 | 1008.0 |
| 20260506081529 | 45 | 41 | 4.0 | 13.0 | 0.02 | 0.58 | 0.53 | 98 | 1007.9 |
| 20260506073029 | 45 | 2 | 5.0 | 13.0 | 0.04 | 0.57 | 0.52 | 98 | 1007.8 |
| 20260506071530 | 45 | 4 | 4.0 | 11.0 | 0.04 | 0.56 | 0.51 | 98 | 1007.6 |
| 20260506044531 | 48 | 1 | 3.0 | 8.0 | 0.08 | 0.51 | 0.41 | 99 | 1006.9 |
| 20260506043029 | 48 | 332 | 3.0 | 11.0 | 0.07 | 0.50 | 0.39 | 99 | 1007.1 |
| 20260506041529 | 48 | 353 | 3.0 | 9.0 | 0.07 | 0.50 | 0.38 | 99 | 1006.9 |
| 20260506040028 | 48 | 6 | 2.0 | 7.0 | 0.06 | 0.47 | 0.35 | 99 | 1007.1 |
| 20260506034530 | 48 | 5 | 2.0 | 7.0 | 0.05 | 0.46 | 0.33 | 99 | 1007.0 |
| 20260506033028 | 48 | 11 | 3.0 | 8.0 | 0.06 | 0.45 | 0.32 | 99 | 1007.2 |
| 20260506030028 | 48 | 22 | 3.0 | 9.0 | 0.08 | 0.43 | 0.30 | 99 | 1007.4 |
| 20260506024528 | 48 | 11 | 3.0 | 6.0 | 0.09 | 0.41 | 0.28 | 99 | 1007.4 |
| 20260506023028 | 48 | 2 | 4.0 | 9.0 | 0.09 | 0.39 | 0.26 | 99 | 1007.4 |
| 20260506021529 | 48 | 18 | 4.0 | 9.0 | 0.09 | 0.38 | 0.25 | 99 | 1007.6 |
| 20260506020027 | 48 | 29 | 4.0 | 9.0 | 0.08 | 0.34 | 0.21 | 99 | 1007.6 |